Location: McFarlands Corners
(41.4117°N, 81.3382°W)
Time: 19:18:13
(UTC+00:00)

Tiros 1 - Pass Details

Date: 22 February 2026
Orbit: 618 x 649 km, 48.4° (Epoch: 10 March)

Event Time Altitude Azimuth Distance (km) Brightness Sun altitude
Rises 12:54:21 0° 248° (WSW) 2,920 10.1 7.1°
Reaches altitude 10° 12:56:41 10° 250° (WSW) 2,009 9.3 7.5°
Maximum altitude 13:01:18 70° 334° (NNW) 670 7.3 8.3°
Drops below altitude 10° 13:05:53 10° 59° (ENE) 1,996 10.3 9.1°
Sets 13:08:12 0° 62° (ENE) 2,900 11.1 9.5°
